{"data":{"norad_id":68976,"intl_designator":"2026-099AB","name":"STARLINK-36735","alt_names":[],"object_type":"PAYLOAD","status":"ACTIVE","operator":null,"country":"US","launch_date":"2026-05-01","launch_site_code":"AFETR","launch_vehicle":null,"mission":null,"orbit_class":"UNKNOWN","rcs_meters":null,"size_class":null,"mass_kg":null,"dimensions":null,"purposes":["comms"],"wikipedia_slug":null,"has_3d_model":false,"image_url":null,"decayed_at":null,"tle_current":{"epoch":"2026-09-20T00:18:35.070624Z","epoch_age_seconds":61448,"freshness":"FRESH","line1":"1 68976U 26099AB  26263.01290591  .00013502  00000+0  40998-3 0  9991","line2":"2 68976  53.1590  77.7704 0001150 100.8267 259.2865 15.34403179 21832","mean_motion":15.34403179,"eccentricity":0.000115,"inclination_deg":53.159,"raan_deg":77.7704,"arg_perigee_deg":100.8267,"mean_anomaly_deg":259.2865,"bstar":0.00040998,"rev_number":2183,"period_min":93.847563646113,"perigee_km":461.90709602444,"apogee_km":463.48048710651,"semimajor_km":6840.8307915655,"source":"CELESTRAK","updated_at":"2026-09-20T09:00:44.056805Z"}}}